FENGYUN 1C DEB, 38725

Orbit data source: Space-Track

FENGYUN 1C DEB, 38725 is space debris in SSO originally from a launch on Mon, 10 May 1999 UTC launched from the Taiyaun Space Center, China (TSC). Fengyun 1C debris stems from the Chinese weather satellite Fengyun-1C, which was intentionally destroyed by a Chinese anti-satellite missile in 2007. This event dramatically increased the amount of space debris, with thousands of trackable fragments posing hazards to satellites and human spaceflight. The Fengyun 1C debris cloud has become a focal point in discussions about space sustainability and the need for international regulations to prevent the creation of new debris.

Loading next visibility...
Identifier
38725, 1999-025ETS
Orbit
SSO
Country
Flag of CNCN / PRC
Related business
Manufacturer
Unknown
Mission
Spacecraft
Bus & Motor
Unknown
Mass
Unknown
Launch date (UTC)
1999-05-10 (27 years ago)
Launch vehicle
Unknown
Launch site
Taiyaun Space Center, China (TSC)
Object type
Payload
Rocket body
Debris
Shape & HBR
Unknown shape, 0.1 m
Radar Cross Section
Small (<0.1 m²)

Expand to show TLE details & history
Last TLE update: 6 days ago

TLE from 6 days ago
0 FENGYUN 1C DEB
1 38725U 99025ETS 26250.86158867  .00006024  00000-0  16656-2 0  9992
2 38725  98.8859  33.2100 0033403 173.7628 186.3986 14.46750597772397
Epoch: 2026-09-07T20:40Z
TLE epoch observation values (Epoch: 2026-09-07T20:40:41.261Z)
Latitude
0.00009°
Longitude
96.10179°
Altitude
762.849 km
Speed
7.46 km/s
True Right ascension
02h 12m 50s
True Declination
0° 00' 00"
Sunlit
Object was in full shadow at epoch
Visualization orbit readout
Latitude
Unknown
Longitude
Unknown
Altitude
Unknown
Speed
Unknown
Apparent Right ascension
Unknown
Apparent Declination
Unknown
Sunlit
N/A
Visualization observer readout
Local Sidereal Time
21:30:15
Azimuth
Unknown
Elevation
Unknown
Doppler factor
Unknown
Orbital elements
Apogee altitude
757.167 km
Perigee altitude
709.658 km
Semi-major axis
7,111.55 km
Eccentricity
0.00334
Inclination
98.8859°
RAAN
33.21°
Arg. of periapsis
173.7628°
True anomaly
186.35612°
Mean anomaly
186.3986°
Eccentric anomaly
186.37734°
Mean motion
3.61907 °/min
Orbital period
99.47 mins
BSTAR
0.0016656
Loading maneuver chart data...
Computing Atmospheric mass density...
Loading historical data...
Loading historical data...
Loading historical data...
Loading historical data...
Loading historical data...
Loading historical data...
Loading historical data...

Documentation

Showing up to 5 results
|